Location: The Saddle
(36.8333°N, 80.3417°W)
Time: 16:13:45
(UTC-05:00)

X-37B - Pass Details

Date: 01 December 2023
Orbit: 277 x 277 km, 45.0° (Epoch: 01 November)

Event Time Altitude Azimuth Distance (km) Brightness Sun altitude
Rises 18:00:10 0° 265° (W) 1,907 5.9 -11.0°
Reaches altitude 10° 18:02:14 10° 279° (W) 1,097 3.9 -11.3°
Maximum altitude 18:04:22 26° 340° (NNW) 592 1.5 -11.7°
Enters shadow 18:05:36 17° 25° (NNE) 794 1.8 -12.0°
